FLOCK 1C 2

导读 | 星芒AI

FLOCK 1C 2 是由 Planet Labs 运营的 Dove 系列地球观测卫星之一,于 2015 年发射。该卫星属于 Flock 1C 群组,与其他小型卫星协同工作,提供高分辨率的多光谱影像。FLOCK 1C 2 主要用于环境监测、农业分析和灾害评估等领域,具备每日覆盖全球的能力。其数据广泛应用于科研和商业用途,支持用户进行土地利用、城市规划和气候变化研究。

基本信息
目录编号:
40029
目录名称:
FLOCK 1C 2
国际标识:
2014-033V
轨道中心:
EARTH
卫星名称:
FLOCK 1C 2
卫星全名:
--
卫星状态:
已陨落 最后检测时间 2025-04-08
发射日期:
2014-06-19 UTC
国别 :
美国 (US)
星等 :
--
轨道信息
数据来源 国际轨道数据
星历时间: 2025-04-02T12:53:17+0800
轨道信息已过期210天
半长轴: 6548.513km
偏心率: 0.0009613
轨道倾角: 98.099°
近地点辐角 229.846°
升交点赤经 112.122°
平近点角 130.200°
近地点: 164.082km
远地点: 176.674km
周期: 87.897分钟
每日圈数: 16.382826
详细信息
使用方式:
暂无